[[{"header":{"parameterUnit":"m.s-1","parameterCategory":1,"la1":30.2991,"la2":30.254,"lo1":-89.0895,"lo2":-89.0444,"dy":0.0017,"dx":0.0017,"nx":28,"ny":28,"refTime":"2024-08-16T21:00:00:Z","depth":0,"parameterNumber":2,"parameterNumberName":"U-component_of_WINDS"},"data":[0,0,0,0,0,0,0,0,0,0,0,0,0,0,0,0,0,0,0,0,0,0,0,0,0,0,0,0,0,0,0,0,0,0,0,0,0,0,0,0,0,0,0,0,0,0,0,0,0,0,0,0,0,0,0,0,0,0,-1.6762,-1.6762,0,-1.6749,-1.6749,-1.6749,-1.6711,-1.671,-1.6709,-1.6708,-1.6696,-1.6696,-1.6697,0,0,0,0,0,0,0,0,0,0,0,0,0,-1.6756,-1.6756,-1.6762,-1.6762,-1.6762,-1.6749,-1.6749,-1.6749,-1.6711,-1.671,-1.6709,-1.6708,-1.6696,-1.6696,-1.6697,0,0,0,0,0,0,0,0,0,0,0,0,0,-1.6753,-1.6756,-1.6763,-1.6741,-1.6739,-1.675,-1.6749,-1.6749,-1.6711,-1.671,-1.6708,-1.6707,-1.6695,-1.6696,-1.6697,-1.6726,0,0,-1.6699,-1.6699,0,0,0,0,0,0,0,0,-1.6753,-1.6753,-1.6745,-1.6743,-1.6741,-1.673,-1.6742,-1.6741,-1.6711,-1.6722,-1.6708,-1.6707,-1.6708,-1.6708,-1.6708,-1.6726,-1.6725,-1.6699,-1.6699,-1.67,-1.67,0,0,0,0,0,0,0,-1.6753,-1.6753,-1.6757,-1.6745,-1.6742,-1.6733,-1.6731,-1.6742,-1.6722,-1.6721,-1.6718,-1.6717,-1.6707,-1.6708,-1.6708,-1.6725,-1.6699,-1.6699,-1.67,-1.67,-1.6768,-1.6769,0,0,0,0,0,0,-1.6756,-1.6754,-1.6758,-1.6757,-1.6744,-1.6734,-1.6732,-1.6735,-1.6722,-1.6719,-1.6718,-1.6715,-1.6707,-1.6707,-1.6707,-1.6742,-1.67,-1.67,-1.6701,-1.6766,-1.6768,-1.6769,0,0,0,0,0,0,-1.6756,-1.6757,-1.6758,-1.6755,-1.6754,-1.6736,-1.6739,-1.6735,-1.6736,-1.672,-1.6716,-1.6722,-1.6706,-1.6706,-1.6722,-1.6741,-1.67,-1.6701,-1.6765,-1.6767,-1.6769,-1.6811,0,0,0,0,0,0,-1.6756,-1.6757,-1.6768,-1.6755,-1.6754,-1.6773,-1.674,-1.6736,-1.6737,-1.6733,-1.6723,-1.672,-1.6705,-1.6721,-1.6723,-1.6741,-1.6702,-1.6763,-1.6766,-1.6768,-1.6807,-1.6814,-1.6819,0,0,0,0,0,-1.6756,-1.678,-1.6768,-1.6769,-1.6767,-1.6774,-1.6774,-1.6756,-1.6739,-1.675,-1.674,-1.672,-1.6738,-1.6723,-1.6725,-1.6743,-1.6762,-1.6765,-1.6768,-1.6805,-1.6813,-1.6819,0,0,0,0,0,0,-1.6795,-1.6778,-1.6765,-1.6785,-1.6782,-1.6768,-1.6781,-1.6764,-1.6766,-1.6762,-1.674,-1.6738,-1.6757,-1.6752,-1.6735,-1.6772,-1.6747,-1.675,-1.6775,-1.6782,-1.6788,-1.6789,-1.6702,0,0,0,0,0,-1.6806,-1.6813,-1.6798,-1.6817,-1.6816,-1.6799,-1.6801,-1.6788,-1.6783,-1.6781,-1.6772,-1.6769,-1.6774,-1.6778,-1.6781,-1.6807,-1.6804,-1.682,-1.6826,-1.6831,-1.6834,-1.6848,-1.6856,-1.678,-1.678,-1.678,0,0,-1.6829,-1.682,-1.6826,-1.6825,-1.682,-1.6829,-1.6798,-1.6807,-1.6813,-1.6783,-1.6797,-1.6791,-1.6786,-1.6807,-1.6816,-1.6803,-1.6855,-1.6835,-1.6839,-1.684,-1.6852,-1.686,-1.6866,-1.6782,-1.6781,-1.6781,0,0,-1.6875,-1.6869,-1.6885,-1.6881,-1.6875,-1.6863,-1.6867,-1.6856,-1.6851,-1.6865,-1.6843,-1.685,-1.6859,-1.6856,-1.6856,-1.6902,-1.6885,-1.6904,-1.6935,-1.6949,-1.6955,-1.696,-1.6978,-1.6984,-1.6908,-1.6908,-1.6908,0,-1.6904,-1.6915,-1.6895,-1.6906,-1.6907,-1.688,-1.6897,-1.6894,-1.689,-1.6891,-1.6877,-1.6888,-1.6882,-1.6903,-1.6914,-1.6915,-1.692,-1.6905,-1.6956,-1.6961,-1.6965,-1.6982,-1.6988,-1.691,-1.691,-1.691,-1.6909,0,-1.6952,-1.696,-1.6973,-1.697,-1.6972,-1.6986,-1.6969,-1.6974,-1.696,-1.6951,-1.6967,-1.6959,-1.6961,-1.6965,-1.6952,-1.6985,-1.6977,-1.696,-1.6934,-1.6975,-1.699,-1.6996,-1.6914,-1.6913,-1.6912,-1.6911,0,0,-1.7021,-1.7007,-1.7012,-1.7011,-1.7002,-1.7008,-1.7022,-1.7024,-1.7028,-1.7027,-1.7038,-1.7046,-1.7031,-1.7031,-1.7017,-1.703,-1.7068,-1.7011,-1.701,-1.7022,-1.7104,-1.7117,-1.7125,-1.7056,-1.7058,-1.7058,-1.7104,0,-1.7065,-1.7086,-1.7069,-1.7094,-1.7101,-1.7077,-1.7088,-1.7085,-1.7077,-1.7083,-1.7074,-1.708,-1.7059,-1.7059,-1.707,-1.7061,-1.7084,-1.7057,-1.7067,-1.7068,-1.7069,-1.7132,-1.7146,-1.719,-1.711,-1.7111,-1.7112,0,-1.7118,-1.7119,-1.7144,-1.7135,-1.7138,-1.7148,-1.7149,-1.7155,-1.7151,-1.7145,-1.7145,-1.7129,-1.7142,-1.7118,-1.7136,-1.7118,-1.7122,-1.7118,-1.7119,-1.712,-1.7092,-1.7135,-1.7203,-1.721,-1.7121,-1.712,-1.7119,0,-1.7167,-1.7174,-1.719,-1.719,-1.7179,-1.7188,-1.7184,-1.7179,-1.7181,-1.7183,-1.7184,-1.7187,-1.7189,-1.7192,-1.7177,-1.7161,-1.7198,-1.7172,-1.7193,-1.7194,-1.7202,-1.7202,-1.7273,-1.7204,-1.7204,-1.7204,-1.7204,0,-1.7218,-1.7234,-1.7212,-1.7222,-1.7241,-1.7222,-1.7241,-1.7234,-1.723,-1.7239,-1.7218,-1.7227,-1.7207,-1.7215,-1.7203,-1.7221,-1.7222,-1.7217,-1.7214,-1.7219,-1.722,-1.7221,-1.7218,-1.7206,-1.7205,-1.7205,-1.7205,0,-1.7275,-1.7261,-1.7277,-1.7266,-1.7264,-1.7278,-1.7269,-1.7278,-1.7269,-1.7281,-1.7283,-1.7268,-1.7276,-1.7262,-1.7268,-1.726,-1.7285,-1.7277,-1.7286,-1.7284,-1.7307,-1.7305,-1.7381,-1.739,-1.7315,-1.7316,-1.7317,0,-1.7308,-1.7321,-1.7311,-1.7316,-1.7313,-1.732,-1.7323,-1.7305,-1.7309,-1.7306,-1.7316,-1.7322,-1.7326,-1.7339,-1.733,-1.7335,-1.7327,-1.7353,-1.7327,-1.7333,-1.7328,-1.7327,-1.7329,-1.7358,-1.7359,-1.736,-1.7361,0,-1.7369,-1.7362,-1.7366,-1.7369,-1.7373,-1.7374,-1.7374,-1.7379,-1.736,-1.7366,-1.7373,-1.7376,-1.7382,-1.7389,-1.7391,-1.7388,-1.7372,-1.7369,-1.7374,-1.738,-1.7385,-1.7383,-1.7301,-1.7367,-1.7367,-1.7366,-1.7366,-1.7365,-1.7416,-1.7426,-1.7422,-1.7428,-1.7425,-1.7426,-1.7434,-1.7426,-1.7432,-1.7436,-1.7425,-1.7435,-1.7432,-1.7434,-1.7433,-1.7441,-1.7429,-1.7437,-1.7439,-1.7441,-1.7445,-1.7384,-1.7441,-1.7441,-1.7441,-1.7441,-1.744,0,-1.7477,-1.7472,-1.7478,-1.7478,-1.7484,-1.7468,-1.7467,-1.7472,-1.7481,-1.748,-1.7484,-1.7493,-1.75,-1.7491,-1.7496,-1.7504,-1.7497,-1.7506,-1.7506,-1.7505,-1.7455,-1.745,-1.7512,-1.7512,-1.7512,-1.7512,-1.7512,-1.7512,-1.7509,-1.7525,-1.7518,-1.7533,-1.7529,-1.7539,-1.754,-1.754,-1.7539,-1.755,-1.7555,-1.755,-1.7545,-1.755,-1.7556,-1.7553,-1.7556,-1.7568,-1.7563,-1.7516,-1.7509,-1.7502,-1.7498,-1.7569,-1.7569,-1.7613,-1.7614,-1.7614]},{"header":{"parameterUnit":"m.s-1","parameterCategory":1,"la1":30.2991,"la2":30.254,"lo1":-89.0895,"lo2":-89.0444,"dy":0.0017,"dx":0.0017,"nx":28,"ny":28,"refTime":"2024-08-16T21:00:00:Z","depth":0,"parameterNumber":3,"parameterNumberName":"V-component_of_WINDS"},"data":[0,0,0,0,0,0,0,0,0,0,0,0,0,0,0,0,0,0,0,0,0,0,0,0,0,0,0,0,0,0,0,0,0,0,0,0,0,0,0,0,0,0,0,0,0,0,0,0,0,0,0,0,0,0,0,0,0,0,4.2839,4.2839,0,4.2838,4.2838,4.2838,4.2812,4.2811,4.281,4.281,4.2809,4.2809,4.281,0,0,0,0,0,0,0,0,0,0,0,0,0,4.2816,4.2817,4.2839,4.2839,4.2839,4.2838,4.2838,4.2838,4.2812,4.2811,4.281,4.2809,4.2809,4.2809,4.281,0,0,0,0,0,0,0,0,0,0,0,0,0,4.2822,4.2817,4.2839,4.2825,4.2824,4.2838,4.2838,4.2838,4.2812,4.2811,4.281,4.2809,4.2808,4.2809,4.281,4.2837,0,0,4.2813,4.2814,0,0,0,0,0,0,0,0,4.2822,4.2823,4.2827,4.2826,4.2825,4.2824,4.283,4.2838,4.2812,4.2816,4.2809,4.2808,4.2815,4.2815,4.2817,4.2837,4.2837,4.2813,4.2814,4.2814,4.2814,0,0,0,0,0,0,0,4.2821,4.2823,4.2838,4.2827,4.2826,4.2819,4.2819,4.2831,4.2821,4.2816,4.2814,4.2814,4.2814,4.2816,4.2817,4.2837,4.2813,4.2814,4.2815,4.2815,4.2878,4.2879,0,0,0,0,0,0,4.2823,4.2822,4.2838,4.2838,4.2821,4.2821,4.282,4.2825,4.2821,4.282,4.2815,4.2813,4.2815,4.2816,4.2817,4.2847,4.2814,4.2815,4.2816,4.2877,4.2878,4.288,0,0,0,0,0,0,4.2822,4.2824,4.2838,4.283,4.2831,4.2822,4.2828,4.2826,4.2828,4.2821,4.2819,4.282,4.2815,4.2816,4.2832,4.2847,4.2816,4.2816,4.2876,4.2877,4.2879,4.2909,0,0,0,0,0,0,4.2822,4.2824,4.2834,4.283,4.2832,4.2854,4.2829,4.2827,4.283,4.2827,4.2824,4.2823,4.2814,4.2831,4.2833,4.2848,4.2817,4.2874,4.2877,4.2878,4.2906,4.2911,4.2916,0,0,0,0,0,4.2821,4.2843,4.2835,4.2837,4.2844,4.2855,4.2855,4.2844,4.2831,4.2841,4.2836,4.2823,4.2845,4.2833,4.2835,4.285,4.2873,4.2876,4.2878,4.2904,4.291,4.2915,0,0,0,0,0,0,4.2848,4.2842,4.2833,4.2854,4.2855,4.285,4.2862,4.2851,4.2856,4.2853,4.2839,4.2839,4.2858,4.2856,4.2842,4.2876,4.2857,4.286,4.2876,4.2882,4.2886,4.2886,4.2818,0,0,0,0,0,4.2857,4.2866,4.286,4.2879,4.288,4.2871,4.2875,4.2867,4.2867,4.2868,4.2864,4.2865,4.2872,4.2877,4.2883,4.2907,4.2905,4.2918,4.2923,4.2926,4.2929,4.2941,4.2946,4.2888,4.2888,4.2888,0,0,4.2875,4.2872,4.2879,4.2885,4.2884,4.2894,4.2872,4.2883,4.289,4.2869,4.2884,4.2882,4.2882,4.2902,4.2911,4.2901,4.2945,4.293,4.2933,4.2933,4.2944,4.295,4.2955,4.289,4.2889,4.2889,0,0,4.2911,4.2911,4.2926,4.2927,4.2927,4.2921,4.2925,4.2921,4.2919,4.2934,4.2919,4.2927,4.294,4.294,4.2942,4.298,4.2968,4.2983,4.3006,4.3018,4.3022,4.3026,4.3039,4.3044,4.2986,4.2986,4.2986,0,4.2933,4.2947,4.2936,4.2948,4.2951,4.2933,4.2949,4.295,4.2952,4.2954,4.2944,4.2959,4.2958,4.2978,4.2987,4.299,4.2993,4.2982,4.3023,4.3027,4.303,4.3042,4.3047,4.2987,4.2987,4.2987,4.2987,0,4.2973,4.2983,4.2996,4.2999,4.3003,4.3017,4.3008,4.3014,4.3006,4.3001,4.3017,4.3015,4.302,4.3025,4.3017,4.3043,4.3037,4.3025,4.3006,4.3038,4.3049,4.3053,4.299,4.2989,4.2989,4.2988,0,0,4.3026,4.3023,4.3028,4.3028,4.3028,4.3035,4.3049,4.3054,4.3059,4.3062,4.3072,4.3084,4.3072,4.3075,4.3067,4.3077,4.3107,4.3063,4.3063,4.3071,4.3136,4.3144,4.315,4.3099,4.31,4.3101,4.3135,0,4.3061,4.3083,4.3074,4.3097,4.3106,4.309,4.3102,4.3102,4.3099,4.3106,4.3101,4.3109,4.3094,4.3095,4.3105,4.3101,4.3119,4.3098,4.3108,4.3109,4.3107,4.3155,4.3164,4.3197,4.314,4.314,4.3141,0,4.3104,4.3109,4.3133,4.313,4.3134,4.3144,4.3149,4.3156,4.3156,4.3153,4.3156,4.3146,4.3158,4.314,4.3158,4.3144,4.3147,4.3146,4.3147,4.3146,4.3126,4.3155,4.3207,4.3212,4.3148,4.3147,4.3147,0,4.3139,4.3151,4.3167,4.3169,4.3166,4.3174,4.3174,4.3173,4.3177,4.3181,4.3184,4.3189,4.3192,4.3197,4.3188,4.3176,4.3207,4.3188,4.3204,4.3204,4.321,4.3209,4.3262,4.3214,4.3214,4.3214,4.3214,0,4.3179,4.3194,4.3183,4.3192,4.3209,4.3199,4.3215,4.3213,4.3213,4.3222,4.3209,4.3217,4.3206,4.3214,4.3207,4.3222,4.3224,4.3221,4.3219,4.3222,4.3222,4.3223,4.322,4.3215,4.3215,4.3215,4.3214,0,4.322,4.3213,4.323,4.3227,4.3226,4.3238,4.3236,4.3244,4.324,4.3252,4.3254,4.3247,4.3255,4.3247,4.3255,4.3251,4.3271,4.3266,4.3271,4.3269,4.3285,4.3283,4.3339,4.3346,4.3295,4.3295,4.3295,0,4.3245,4.3256,4.3255,4.326,4.326,4.3269,4.3273,4.3263,4.3268,4.327,4.3278,4.3286,4.3291,4.3305,4.33,4.3306,4.3301,4.332,4.3301,4.3304,4.33,4.3299,4.33,4.3323,4.3324,4.3325,4.3325,0,4.329,4.3286,4.3293,4.3298,4.3303,4.3307,4.331,4.3315,4.3305,4.3311,4.332,4.3324,4.3332,4.3339,4.3344,4.3343,4.3332,4.3331,4.3335,4.3337,4.3339,4.3337,4.328,4.333,4.3329,4.3329,4.3329,4.3328,4.3323,4.3332,4.3333,4.334,4.3342,4.3345,4.3353,4.335,4.3356,4.3362,4.3356,4.3367,4.3367,4.3372,4.3373,4.3381,4.3373,4.3378,4.338,4.3381,4.3383,4.3339,4.3382,4.3382,4.3382,4.3381,4.3381,0,4.3366,4.3366,4.3373,4.3378,4.3384,4.3374,4.3377,4.3382,4.3391,4.3393,4.3398,4.3408,4.3415,4.3412,4.3418,4.3425,4.342,4.3426,4.3425,4.3425,4.339,4.3386,4.343,4.343,4.343,4.343,4.343,4.343,4.339,4.3405,4.3401,4.3417,4.3416,4.3426,4.3428,4.3431,4.3432,4.3444,4.3449,4.3447,4.3447,4.3453,4.3459,4.3458,4.346,4.3468,4.3465,4.3433,4.3428,4.3423,4.3419,4.3469,4.3469,4.35,4.35,4.35]}]]